User: anonymous   Login
Location: Pulvis Stellarum Observatory
(41.6962°N, 71.4263°W)
Time: 04:37:42
(UTC-04:00)
Language:

Cosmos 1758 - Orbit

View from above orbital plane
View from above orbital plane
View from above satellite
View from above satellite

Ground track
Ground track

The orbit data is extracted from the following two-line orbital elements,

1 16791U 86046A   16209.91866451  .00000682  00000-0  47028-4 0  9997
2 16791  82.4714 347.9210 0018337 110.1918 250.1283 15.04072925636934
Epoch (UTC): 27 July 2016 22:02:52
Eccentricity: 0.0018337
inclination: 82.4714°
perigee height: 541 km
apogee height: 567 km
right ascension of ascending node: 347.9210°
argument of perigee: 110.1918°
revolutions per day: 15.04072925
mean anomaly at epoch: 250.1283°
orbit number at epoch: 63693

The dashed part of the orbit path shows where the satellite is in the earth's shadow,  

DLR